Regional Weather Roundup
Issued by NWS Sioux Falls, SD

Home | Current Version | Previous Version | Text Only | Print | Product List | Glossary On
Versions: 1 2 3 4 5 6 7 8 9 10 11 12 13 14 15 16 17 18 19 20 21 22 23 24 25 26 27 28 29 30 31 32 33 34 35 36 37 38 39 40 41 42 43 44 45 46 47 48 49 50
000
ASUS43 KFSD 180110
RWRFSD

WEATHER ROUNDUP FOR SE SOUTH DAKOTA/SW MINNESOTA/NW IOWA
NATIONAL WEATHER SERVICE SIOUX FALLS SD
800 PM CDT THU APR 17 2014

NOTE: "FAIR" INDICATES FEW OR NO CLOUDS BELOW 12,000 FEET WITH NO
SIGNIFICANT WEATHER AND OR OBSTRUCTIONS TO VISIBILITY.


SDZ038>040-050-052>070-180200-
SOUTHEAST SOUTH DAKOTA

CITY           SKY/WX    TMP DP  RH WIND       PRES   REMARKS
CHAMBERLAIN      N/A     44  26  49 SE14      30.17F
HURON          CLOUDY    43  22  43 SE5       30.23S
MADISON        CLOUDY    39  19  45 E7        30.25S
MITCHELL       CLOUDY    46  23  40 E8        30.23F
SIOUX FALLS    MOCLDY    41  24  51 NE9       30.25F
WINNER         FAIR      45  25  45 E16       30.13
YANKTON        MOCLDY    46  23  39 E6        30.24F
$$

MNZ071-072-080-081-089-090-097-098-180200-
SOUTHWEST MINNESOTA

CITY           SKY/WX    TMP DP  RH WIND       PRES   REMARKS
FAIRMONT       CLEAR     39  28  65 NW5       30.30S
JACKSON        PTCLDY    39  30  70 N6        30.28S
LUVERNE        MOCLDY    39  27  60 NE6       30.27F
MARSHALL       CLEAR     34  21  60 CALM      30.29F
MONTEVIDEO     CLEAR     37  21  52 CALM      30.30F
PIPESTONE      PTCLDY    37  21  52 E5        30.26S
REDWOOD FALLS  CLEAR     35  25  66 W3        30.30S
TRACY          CLEAR     34  26  74 CALM      30.29F
WINDOM         CLEAR     36  28  75 N5        30.29R
WORTHINGTON    MOCLDY    37  23  56 N7        30.29S
$$

IAZ001>003-012>014-020>022-031-032-NEZ013-014-SDZ071-180200-
NORTHWEST IOWA

CITY           SKY/WX    TMP DP  RH WIND       PRES   REMARKS
CHEROKEE       PTCLDY    45  27  48 NE3       30.26S
DENISON        PTCLDY    50  23  34 CALM      30.24R
ESTHERVILLE    PTCLDY    39  30  70 N7        30.27S
LE MARS        CLOUDY    48  25  40 NE6       30.25F
ORANGE CITY    CLOUDY    48  25  40 NE3       30.25F
SHELDON        MOCLDY    43  28  56 NE7       30.25S
SIOUX CITY     MOCLDY    50  23  34 NE3       30.25S
SPENCER        MOCLDY    42  29  59 NE8       30.27S
STORM LAKE     CLEAR     43  27  52 NE7       30.26S
$$

ABBREVIATIONS USED IN REMARKS
   TC - TEMPERATURE IN CELSIUS
  WCI - WIND CHILL INDEX
   HX - HEAT INDEX
  VSB - VISIBILITY




USA.gov is the U.S. government's official web portal to all federal, state and local government web resources and services.